Change the Weather History Date:

Friday, April 12, 2013

  Actual Average Record
Temperature  
Mean Temperature 47 °F 52 °F  
Max Temperature 60 °F 62 °F 86 °F (1930)
Min Temperature 34 °F 42 °F 21 °F (1976)
Degree Days  
Heating Degree Days 18 13  
Month to date heating degree days 170 184  
Since 1 July heating degree days 4879 4895  
Cooling Degree Days 0 0  
Month to date cooling degree days 11 0  
Year to date cooling degree days 11 0  
Moisture  
Dew Point 46 °F    
Average Humidity 75    
Maximum Humidity 93    
Minimum Humidity 56    
Precipitation  
Precipitation 0.20 in 0.12 in 0.66 in (1948)
Month to date precipitation 1.13 1.36  
Year to date precipitation 8.32 9.36  
Snow  
Snow 0.00 in 0.00 in 6.30 in (1973)
Month to date snowfall T 0.7  
Since 1 July snowfall 41.2 26.3  
Snow Depth 0.00 in    
Sea Level Pressure  
Sea Level Pressure 29.65 in    
Wind  
Wind Speed 14 mph (WSW)    
Max Wind Speed 23 mph    
Max Gust Speed 28 mph    
Visibility 8 miles    
Events Rain    
T = Trace of Precipitation, MM = Missing Value Source: NWS Daily Summary

Daily Weather History Graph

Daily Weather History Graph

Search for Another Location

Airport or City:

Trip Planner

Search our weather history database for the weather conditions in past years. The results will help you decide how hot, cold, wet, or windy it might be!

Date:

Astronomy

Apr. 12, 2013 Rise Set
Actual Time 6:57 AM EDT 8:07 PM EDT
Civil Twilight 6:30 AM EDT 8:35 PM EDT
Nautical Twilight 5:56 AM EDT 9:08 PM EDT
Astronomical Twilight 5:22 AM EDT 9:43 PM EDT
Moon 8:06 AM EDT (4/12) 10:36 PM EDT (4/12)
Length of Visible Light 14h 05m
Length of Day
13h 09m
Waxing Crescent, 5% of the Moon is Illuminated
Apr 12
Waxing Crescent
Apr 18
First Quarter
Apr 25
Full
May 2
Last Quarter
May 9
New

Hourly Weather History & Observations

Time (EDT) Temp. Windchill Dew Point Humidity Pressure Visibility Wind Dir Wind Speed Gust Speed Precip Events Conditions
12:02 AM 60.8 °F - 60.8 °F 100% 29.54 in 7.0 mi ESE 6.9 mph - 0.00 in Rain Light Rain
12:24 AM 60.8 °F - 60.8 °F 100% 29.53 in 7.0 mi SSE 9.2 mph - 0.00 in   Overcast
12:51 AM 60.1 °F - 59.0 °F 96% 29.52 in 7.0 mi SW 6.9 mph - 0.00 in   Overcast
1:51 AM 59.0 °F - 57.9 °F 96% 29.52 in 8.0 mi SSW 8.1 mph - N/A   Overcast
1:58 AM 59.0 °F - 57.2 °F 94% 29.52 in 8.0 mi SW 5.8 mph - N/A   Overcast
2:51 AM 59.0 °F - 57.9 °F 96% 29.50 in 8.0 mi SSW 6.9 mph - N/A   Overcast
3:47 AM 59.0 °F - 57.2 °F 94% 29.49 in 2.5 mi South 8.1 mph - 0.04 in Rain Rain
3:51 AM 59.0 °F - 57.9 °F 96% 29.48 in 3.0 mi South 9.2 mph - 0.05 in Rain Rain
4:51 AM 59.0 °F - 57.9 °F 96% 29.48 in 10.0 mi SSW 9.2 mph - 0.06 in Rain Light Rain
5:27 AM 55.4 °F - 51.8 °F 88% 29.50 in 7.0 mi WNW 16.1 mph - 0.04 in Rain Rain
5:34 AM 55.4 °F - 51.8 °F 88% 29.51 in 8.0 mi WNW 15.0 mph - 0.05 in Rain Light Rain
5:51 AM 54.0 °F - 52.0 °F 93% 29.52 in 9.0 mi West 11.5 mph - 0.06 in Rain Light Rain
5:58 AM 53.6 °F - 51.8 °F 94% 29.53 in 8.0 mi WNW 13.8 mph 19.6 mph 0.00 in Rain Rain
6:27 AM 51.8 °F - 50.0 °F 94% 29.55 in 10.0 mi WNW 13.8 mph 18.4 mph 0.02 in Rain Light Rain
6:46 AM 50.0 °F - 48.2 °F 94% 29.55 in 10.0 mi WNW 13.8 mph - 0.03 in Rain Light Rain
6:51 AM 50.0 °F - 48.9 °F 96% 29.56 in 8.0 mi WNW 12.7 mph - 0.03 in Rain Light Rain
7:18 AM 48.2 °F - 48.2 °F 100% 29.59 in 10.0 mi West 15.0 mph - 0.00 in   Overcast
7:29 AM 48.2 °F - 48.2 °F 100% 29.59 in 10.0 mi WNW 12.7 mph - 0.00 in   Overcast
7:42 AM 48.2 °F - 48.2 °F 100% 29.60 in 10.0 mi WNW 10.4 mph - 0.00 in   Overcast
7:51 AM 48.0 °F - 48.0 °F 100% 29.61 in 10.0 mi West 13.8 mph 20.7 mph 0.00 in   Overcast
8:13 AM 48.2 °F - 48.2 °F 100% 29.64 in 10.0 mi West 20.7 mph - N/A   Overcast
8:23 AM 46.4 °F 40.1 °F 46.4 °F 100% 29.64 in 2.0 mi WNW 15.0 mph - 0.00 in   Light Drizzle
8:51 AM 46.0 °F 39.3 °F 46.0 °F 100% 29.65 in 2.0 mi West 16.1 mph - 0.00 in   Light Drizzle
8:58 AM 46.4 °F 39.0 °F 46.4 °F 100% 29.66 in 2.0 mi West 19.6 mph - 0.00 in   Light Drizzle
9:03 AM 46.4 °F 39.2 °F 46.4 °F 100% 29.66 in 2.0 mi West 18.4 mph - 0.00 in   Overcast
9:07 AM 46.4 °F 39.8 °F 46.4 °F 100% 29.67 in 6.0 mi West 16.1 mph - 0.00 in Rain Light Rain
9:51 AM 46.0 °F 38.8 °F 45.7 °F 99% 29.68 in 6.0 mi WSW 18.4 mph - 0.00 in Rain Light Rain
10:51 AM 44.6 °F 37.8 °F 44.6 °F 100% 29.70 in 10.0 mi WSW 15.0 mph - N/A   Overcast
11:51 AM 45.0 °F 37.1 °F 37.0 °F 74% 29.73 in 10.0 mi WSW 19.6 mph 27.6 mph N/A   Overcast
12:51 PM 44.1 °F 37.1 °F 37.0 °F 76% 29.75 in 10.0 mi WSW 15.0 mph 24.2 mph N/A   Overcast
1:51 PM 44.1 °F 36.5 °F 37.6 °F 78% 29.76 in 10.0 mi SW 17.3 mph 26.5 mph N/A   Overcast
2:07 PM 46.4 °F 39.2 °F 37.4 °F 71% 29.75 in 10.0 mi WSW 18.4 mph 26.5 mph N/A   Overcast
2:51 PM 45.0 °F 37.4 °F 35.1 °F 68% 29.77 in 10.0 mi WSW 18.4 mph - N/A   Overcast
3:51 PM 46.0 °F 39.9 °F 32.0 °F 58% 29.78 in 10.0 mi WSW 13.8 mph - N/A   Overcast
4:51 PM 46.9 °F - 32.0 °F 56% 29.78 in 10.0 mi WSW 15.0 mph - N/A   Overcast
5:51 PM 48.2 °F - 33.8 °F 58% 29.80 in 10.0 mi WSW 13.8 mph - N/A   Overcast
6:51 PM 46.9 °F - 34.0 °F 61% 29.83 in 10.0 mi West 16.1 mph - N/A   Overcast
7:51 PM 46.9 °F - 34.0 °F 61% 29.85 in 10.0 mi West 13.8 mph - N/A   Overcast
8:51 PM 46.0 °F 39.6 °F 33.1 °F 61% 29.87 in 10.0 mi West 15.0 mph - N/A   Overcast
9:51 PM 44.6 °F 37.4 °F 32.0 °F 61% 29.88 in 10.0 mi West 16.1 mph - N/A   Overcast
10:51 PM 45.0 °F 38.5 °F 32.0 °F 60% 29.91 in 10.0 mi WSW 13.8 mph - N/A   Overcast
11:51 PM 45.0 °F 39.7 °F 33.1 °F 63% 29.91 in 10.0 mi West 10.4 mph - N/A   Overcast